Torna al catalogo

STARLINK-6066

AttivoComunicazioniVLEO
NORAD 56105·PAYLOAD·🇺🇸 United States

Lanciato Mar 29, 2023 da Cape Canaveral Space Force Station

Loading…

Prossimi Passaggi (prossime 24 ore)

TLE

AggiornatoSource: CelesTrak SupGP

Epoca: Sep 14, 2026, 14:16 UTC

1 56105C 23046N   26257.59493056 -.00013957  00000+0 -50566-3 0  2573
2 56105  43.0026 174.9290 0001496 259.5648 313.2936 15.27576389    16

Traccia STARLINK-6066 in tempo reale con AllMySat

Download on the App Store